Change the Weather History Date:

Sunday, August 25, 2013

  Actual Average Record
Temperature  
Mean Temperature 75 °F 70 °F  
Max Temperature 91 °F 87 °F 99 °F (2008)
Min Temperature 58 °F 52 °F 45 °F (2005)
Degree Days  
Heating Degree Days 0 1  
Month to date heating degree days 0 3  
Since 1 June heating degree days 36 79  
Since 1 July heating degree days 0 9  
Cooling Degree Days 10 5  
Month to date cooling degree days 251 202  
Year to date cooling degree days 834 605  
Since 1 June cooling degree days 807 585  
Growing Degree Days 23 (Base 50)    
Moisture  
Dew Point 44 °F    
Average Humidity 44    
Maximum Humidity 72    
Minimum Humidity 16    
Precipitation  
Precipitation 0.00 in 0.02 in 0.07 in (2004)
Month to date precipitation T 0.29  
Year to date precipitation 2.62 5.32  
Sea Level Pressure  
Sea Level Pressure 29.91 in    
Wind  
Wind Speed 4 mph (SSE)    
Max Wind Speed 14 mph    
Max Gust Speed 18 mph    
Visibility 10 miles    
Events      
T = Trace of Precipitation, MM = Missing Value Source: NWS Daily Summary

Daily Weather History Graph

Daily Weather History Graph

Search for Another Location

Airport or City:

Trip Planner

Search our weather history database for the weather conditions in past years. The results will help you decide how hot, cold, wet, or windy it might be!

Date:

Astronomy

Aug. 25, 2013 Rise Set
Actual Time 6:27 AM MDT 8:00 PM MDT
Civil Twilight 5:56 AM MDT 8:31 PM MDT
Nautical Twilight 5:19 AM MDT 9:08 PM MDT
Astronomical Twilight 4:39 AM MDT 9:47 PM MDT
Moon 10:18 PM MDT (8/25) 11:46 AM MDT (8/25)
Length of Visible Light 14h 34m
Length of Day
13h 33m
Waning Gibbous, 75% of the Moon is Illuminated
Aug 25
Waning Gibbous
Aug 28
Last Quarter
Sep 5
New
Sep 12
First Quarter
Sep 19
Full

Hourly Weather History & Observations

Time (MDT) Temp. Dew Point Humidity Pressure Visibility Wind Dir Wind Speed Gust Speed Precip Events Conditions
12:53 AM 70.0 °F 48.0 °F 46% 29.90 in 10.0 mi WSW 4.6 mph - N/A   Scattered Clouds
1:53 AM 68.0 °F 46.9 °F 47% 29.89 in 10.0 mi WNW 5.8 mph - N/A   Clear
2:53 AM 64.9 °F 46.0 °F 50% 29.90 in 10.0 mi WNW 3.5 mph - N/A   Clear
3:53 AM 63.0 °F 46.9 °F 56% 29.92 in 10.0 mi Calm Calm - N/A   Clear
4:53 AM 60.1 °F 50.0 °F 69% 29.95 in 10.0 mi ESE 5.8 mph - N/A   Clear
5:53 AM 60.1 °F 46.9 °F 62% 29.96 in 10.0 mi Calm Calm - N/A   Clear
6:53 AM 57.9 °F 48.0 °F 70% 29.98 in 10.0 mi SE 3.5 mph - N/A   Clear
7:53 AM 62.1 °F 46.0 °F 56% 29.98 in 10.0 mi Calm Calm - N/A   Clear
8:53 AM 64.9 °F 48.0 °F 54% 29.99 in 10.0 mi SE 4.6 mph - N/A   Clear
9:53 AM 70.0 °F 50.0 °F 49% 29.99 in 10.0 mi SSE 4.6 mph - N/A   Clear
10:53 AM 75.0 °F 46.9 °F 37% 29.98 in 10.0 mi SE 6.9 mph - N/A   Clear
11:53 AM 79.0 °F 45.0 °F 30% 29.96 in 10.0 mi Variable 4.6 mph - N/A   Clear
12:53 PM 82.0 °F 44.1 °F 26% 29.94 in 10.0 mi Calm Calm - N/A   Clear
1:53 PM 86.0 °F 44.1 °F 23% 29.91 in 10.0 mi SE 6.9 mph - N/A   Clear
2:53 PM 89.1 °F 39.9 °F 18% 29.89 in 10.0 mi Calm Calm - N/A   Clear
3:53 PM 89.1 °F 37.9 °F 16% 29.87 in 10.0 mi Calm Calm - N/A   Clear
4:53 PM 89.1 °F 37.9 °F 16% 29.86 in 10.0 mi SSE 4.6 mph - N/A   Clear
5:53 PM 89.1 °F 37.0 °F 16% 29.85 in 10.0 mi South 6.9 mph - N/A   Clear
6:53 PM 86.0 °F 42.1 °F 21% 29.86 in 10.0 mi Calm Calm - N/A   Clear
7:53 PM 84.9 °F 41.0 °F 21% 29.84 in 10.0 mi Calm Calm - N/A   Clear
8:53 PM 79.0 °F 44.1 °F 29% 29.84 in 10.0 mi Calm Calm - N/A   Clear
9:53 PM 77.0 °F 44.1 °F 31% 29.84 in 10.0 mi SE 4.6 mph - N/A   Clear
10:53 PM 77.0 °F 41.0 °F 28% 29.83 in 10.0 mi ESE 5.8 mph - N/A   Clear
11:53 PM 78.1 °F 44.1 °F 30% 29.83 in 10.0 mi SSE 10.4 mph - N/A   Clear